Vertical_Velocity
-1 -1 1 -2 5 1 1 2 1 0 6 -4 -0 -2 -2 -1 -2 3 -2 3 4 4 3 -3 -2 1 -2 6 0 4 8 5 4 3 4 -2 1 0 -4 2 -2 -3 -1 3 2 2 2 -1 2
-2 -2 -1 -0 8 6 4 2 -2 3 2 0 5 -2 -0 0 -1 0 -0 0 -2 4 0 -5 1 2 0 0 -1 2 -2 6 6 5 2 6 1 -1 0 -1 -0 1 -1 -0 2 1 2 1 1
-1 -2 0 1 -3 10 9 3 3 3 -2 -1 5 3 0 -2 -0 0 3 3 2 0 -2 8 -3 -5 1 -0 1 0 -2 1 -2 7 5 2 4 5 3 0 0 -0 3 -1 3 -4 2 4 1
-4 -3 -3 11 -2 1 3 2 -0 1 6 2 3 2 1 -2 -2 -3 -1 -0 1 2 1 -0 2 0 4 -3 -1 3 1 -1 4 2 8 6 5 3 3 3 1 -1 1 1 3 -4 3 4 1
-2 -2 6 8 3 1 2 -0 -4 -3 -1 3 -2 -8 -2 -4 -1 -1 -1 0 -1 1 2 0 3 3 1 3 1 0 1 1 -4 0 1 6 4 2 5 1 4 -4 -0 -0 0 3 2 1 1
1 -6 2 14 -1 4 -2 1 -1 -1 0 1 4 4 0 2 0 -2 1 2 4 4 2 6 4 5 3 1 2 5 -0 2 2 -3 1 2 8 7 7 4 5 5 1 2 -0 5 -2 5 -0
0 -4 3 -6 3 7 -1 2 3 -1 2 2 3 3 2 4 -0 2 1 1 1 3 3 4 4 5 2 3 -2 0 3 -0 4 4 -3 -4 2 2 5 4 4 3 0 1 -3 -2 -2 5 4
-2 -4 -1 1 5 -1 1 -1 -2 -1 -3 1 1 -0 3 1 2 1 1 1 1 0 1 2 4 5 5 -1 3 6 1 4 2 3 2 1 -1 1 0 3 3 3 7 4 4 3 2 -7 4
-3 1 4 1 -1 -7 2 1 -0 -1 -3 -5 -4 -2 -2 -0 -2 2 2 -1 1 3 -0 1 1 3 4 -1 2 13 2 -0 2 4 4 -2 -4 0 2 -1 3 5 4 1 1 4 6 -6 -0
-2 -0 -1 1 1 1 1 3 1 0 0 -1 -1 -2 -2 -2 2 -1 -2 3 3 1 3 1 -1 0 0 5 2 8 10 8 2 1 2 5 3 -1 -1 5 -1 3 3 3 0 1 2 -9 -1
-1 1 1 -0 -2 1 -2 -0 3 2 1 1 0 -2 1 1 -0 0 1 -6 -10 -2 -2 -4 0 0 -1 -2 1 2 12 17 9 -9 6 4 12 11 -9 3 6 0 -1 7 -4 1 -5 -2 0
-4 1 -1 -2 -1 -1 -0 -1 -2 1 3 1 -1 -2 -2 -3 -4 -2 -3 -1 0 -1 -5 -5 -8 -1 0 -2 3 -1 -2 -2 15 10 -22 -26 10 8 -6 -1 3 9 2 -0 10 1 -1 -0 -1
-0 -2 -0 -0 -2 -1 -2 -2 -4 -3 -1 -0 -0 0 1 -2 -3 -3 -5 -6 -6 -3 -0 0 -3 -4 -5 0 3 7 9 4 11 9 7 -25 14 9 -0 5 -5 11 10 2 7 6 -2 2 -1
-2 -1 -1 0 0 -3 -4 -1 -2 -3 -2 -2 -2 -1 -1 -0 0 -0 1 -3 -4 -4 -3 -2 -1 -4 -2 -1 -3 -0 2 7 7 5 5 8 25 19 29 3 13 0 5 9 5 11 1 -2 6
-2 -1 -1 0 1 1 2 -3 -3 -1 -3 -5 -6 -6 -2 -3 -1 -1 1 1 -0 -1 -6 -6 -4 -0 -3 -1 -0 -0 0 1 3 -3 6 18 25 52 -15 -3 14 13 -3 -2 5 -1 10 0 3
1 -1 17 -1 1 -2 -8 1 -1 -1 1 -0 -1 -2 -3 -1 0 -1 -4 0 1 0 -1 -1 -2 -2 -4 -3 -2 1 1 5 3 4 -9 4 8 17 -3 -55 30 23 -35 -2 1 2 7 7 7
-3 10 -0 1 -1 -0 -1 0 -2 -2 -2 -2 -2 -0 -1 -1 1 -1 -4 -1 -3 -0 -0 0 2 -3 0 -1 -5 -5 4 -1 4 4 1 -9 6 10 9 -18 -17 66 6 -16 17 -2 -1 3 6
0 4 -1 1 -1 0 -0 -2 -0 -4 -2 -2 0 -1 -3 -2 -3 -4 -3 -3 -4 -4 -2 -1 -2 -1 -1 -1 1 -2 -5 1 6 4 -3 -2 -1 -3 -13 -1 6 117 29 -40 -5 8 -9 10 -1
-4 -2 -2 1 -3 -5 -0 -0 -2 -3 -0 -1 -0 -0 -1 -2 -4 -4 -5 -5 -3 -2 -4 -5 -4 -4 -6 -4 -3 5 -2 2 5 3 -1 1 -5 1 1 6 -7 4 11 15 34 -1 -1 -3 1
-1 2 -2 -2 -2 -1 0 2 -1 -0 -2 -3 -2 -3 -2 -1 -1 -2 -2 -4 -4 -4 -3 -3 -3 -6 -5 -5 -7 -4 -3 -1 1 4 4 -2 -2 -9 -8 -9 3 25 -79 36 -16 -22 -48 -1 12
0 -1 -2 5 -3 -3 1 1 3 -3 -3 -1 -1 -2 -3 -5 -4 -4 -5 -6 -5 -6 -5 -6 -5 -5 -2 -5 -4 -2 2 6 8 7 4 1 0 0 -3 -7 -2 6 -29 97 12 -13 -21 -2 3
4 -2 -0 -1 2 9 -5 9 -7 -3 1 1 -1 -1 -1 1 2 -1 -3 -2 -4 -5 -3 -3 -4 -5 -7 -5 -3 -5 -8 -8 -4 -4 3 5 -3 3 -4 -5 -6 5 5 1 -20 52 -0 -4 -9
-5 -1 -1 -3 1 -3 1 6 -3 -4 5 -0 -2 -1 -0 -2 -2 -3 -4 -3 -4 -3 -5 -3 -4 -3 -3 -6 -5 -5 -4 -6 -5 -0 4 2 2 -0 3 -5 -3 -4 4 0 -43 58 -57 5 4
-4 -1 -2 -0 -1 1 -3 -1 -4 2 -3 -0 -1 -3 -4 -4 -3 -3 -2 -2 -1 -2 -1 -3 -5 -4 -4 -2 -3 -4 -4 -5 -6 -3 1 4 -0 2 1 0 -2 -7 -1 -0 5 -20 16 -17 24
-1 3 1 3 1 3 -3 5 -6 -2 -2 -2 -3 -2 -2 -2 -2 -2 -3 -3 -4 -3 -1 -0 -4 -2 -2 -1 -3 -4 -3 -3 -6 -4 -3 -2 3 0 2 1 -2 0 -3 4 8 8 -52 136 13
-2 -1 -1 0 1 4 -7 2 0 -2 -4 -3 -2 -0 -1 -0 -2 -2 -2 -1 -0 -1 -1 -1 -3 -5 -3 -3 -2 -3 -2 -3 -2 -3 -3 -4 -5 -1 -0 5 -0 -4 -1 -1 10 19 -1 -27 -24
-4 -1 -4 -3 -3 2 -3 -4 -3 -3 -1 1 -1 -1 -3 -3 -3 -3 -2 -2 -1 -2 -1 -3 -3 -2 -1 -3 -0 -1 -1 -0 -3 -2 1 0 -1 -5 -2 1 4 -2 -2 -3 1 2 13 3 2
0 -2 2 -2 1 -1 -1 1 3 0 -1 -3 -3 -3 -1 -1 -2 -0 -2 -3 -2 -2 -2 -1 -2 -4 -3 -1 -1 -3 -3 -1 -2 -4 1 1 3 -5 -7 -2 1 3 -1 -1 -2 -1 3 1 -2
0 -2 -2 -4 -3 2 1 1 -2 -1 -3 -3 -2 -1 -3 -2 -4 -4 -3 -1 -1 -0 -1 -1 -1 -2 -1 0 -2 -2 -4 -2 -3 -3 -2 1 2 1 -2 -8 -4 3 -0 2 3 0 5 -4 -6
-2 -1 -3 -1 -1 -3 -3 -5 -3 -3 -4 -4 0 0 -1 -3 -5 -2 -2 -1 -1 -1 -1 -3 -1 -1 -1 -2 -1 -0 -3 -1 -0 -0 0 0 -1 5 1 -4 -8 -5 3 0 1 4 -4 1 2
Height
3181 3180 3180 3182 3189 3185 3187 3188 3189 3189 3189 3186 3184 3182 3182 3181 3180 3187 3180 3179 3179 3179 3179 3179 3181 3182 3182 3183 3184 3183 3184 3185 3185 3185 3185 3184 3184 3184 3184 3184 3183 3183 3182 3182 3182 3183 3182 3183 3184
3180 3180 3180 3180 3185 3182 3187 3188 3188 3188 3186 3186 3185 3183 3182 3181 3180 3179 3179 3179 3179 3178 3177 3175 3178 3180 3180 3180 3181 3182 3182 3182 3184 3184 3184 3184 3183 3183 3183 3183 3183 3181 3182 3182 3182 3184 3184 3184 3185
3179 3179 3181 3182 3183 3182 3186 3187 3186 3187 3183 3184 3185 3182 3182 3180 3180 3178 3177 3177 3177 3177 3176 3177 3175 3174 3176 3177 3178 3178 3178 3180 3181 3182 3184 3184 3184 3183 3182 3183 3183 3182 3181 3182 3181 3183 3184 3185 3186
3179 3180 3181 3183 3183 3183 3185 3184 3183 3185 3184 3182 3183 3181 3180 3179 3177 3176 3176 3176 3174 3174 3173 3173 3174 3174 3175 3174 3175 3175 3176 3176 3177 3179 3180 3182 3182 3182 3182 3182 3183 3182 3182 3181 3181 3182 3183 3186 3187
3178 3180 3183 3183 3183 3181 3180 3180 3180 3183 3182 3181 3181 3179 3178 3176 3175 3174 3173 3173 3172 3170 3170 3170 3170 3171 3172 3172 3173 3172 3173 3173 3174 3176 3177 3179 3180 3180 3180 3181 3182 3181 3181 3181 3181 3181 3183 3184 3187
3179 3179 3182 3180 3182 3181 3178 3178 3178 3179 3179 3179 3178 3176 3175 3173 3172 3170 3169 3168 3168 3167 3167 3167 3167 3167 3168 3168 3169 3170 3170 3170 3171 3171 3173 3175 3176 3178 3178 3179 3181 3181 3180 3180 3181 3181 3183 3184 3186
3178 3180 3181 3180 3181 3179 3175 3175 3174 3173 3174 3175 3175 3174 3172 3171 3170 3168 3166 3164 3164 3163 3163 3163 3164 3164 3165 3165 3166 3166 3167 3166 3167 3168 3169 3171 3172 3174 3175 3176 3177 3179 3179 3179 3179 3181 3182 3184 3184
3175 3177 3178 3178 3179 3175 3173 3172 3171 3171 3171 3171 3171 3170 3169 3167 3166 3164 3163 3162 3161 3159 3158 3158 3158 3160 3161 3160 3161 3163 3163 3163 3164 3165 3165 3166 3168 3169 3170 3173 3174 3175 3177 3177 3178 3179 3178 3182 3184
3173 3177 3177 3175 3175 3172 3171 3171 3169 3168 3167 3167 3166 3165 3165 3164 3163 3161 3160 3158 3156 3155 3153 3153 3152 3153 3155 3155 3156 3157 3158 3160 3160 3160 3161 3162 3163 3164 3165 3166 3169 3171 3174 3174 3175 3177 3178 3179 3181
3172 3174 3172 3172 3172 3171 3169 3168 3167 3167 3164 3162 3161 3159 3158 3157 3156 3156 3155 3153 3151 3149 3148 3147 3148 3147 3148 3150 3151 3152 3152 3153 3155 3155 3155 3157 3158 3159 3160 3163 3164 3167 3168 3170 3171 3173 3176 3175 3177
3169 3171 3170 3170 3169 3168 3166 3165 3163 3162 3160 3159 3158 3157 3155 3153 3151 3148 3146 3145 3144 3143 3141 3140 3141 3142 3143 3144 3144 3145 3146 3147 3147 3151 3150 3150 3151 3153 3155 3157 3158 3160 3162 3164 3167 3168 3171 3172 3174
3167 3167 3166 3166 3166 3165 3165 3163 3161 3160 3158 3156 3154 3151 3150 3149 3147 3144 3142 3140 3138 3137 3135 3133 3132 3132 3135 3136 3137 3138 3139 3140 3139 3140 3144 3143 3143 3146 3148 3149 3152 3154 3157 3159 3162 3164 3167 3170 3171
3163 3164 3164 3163 3162 3163 3163 3162 3161 3160 3158 3155 3152 3150 3146 3142 3139 3136 3136 3134 3132 3129 3128 3127 3126 3126 3125 3124 3126 3128 3129 3129 3131 3130 3133 3131 3133 3135 3140 3141 3143 3148 3150 3154 3157 3160 3163 3165 3167
3161 3161 3163 3162 3162 3161 3161 3160 3158 3159 3157 3155 3153 3150 3146 3142 3138 3133 3129 3126 3124 3123 3121 3119 3118 3116 3115 3115 3115 3117 3117 3119 3120 3122 3123 3124 3123 3119 3123 3129 3133 3140 3144 3147 3151 3155 3159 3161 3162
3159 3161 3162 3163 3162 3161 3161 3158 3157 3156 3154 3153 3150 3148 3145 3141 3137 3133 3128 3123 3120 3116 3113 3112 3110 3108 3106 3105 3105 3106 3106 3107 3108 3111 3115 3116 3114 3112 3108 3119 3123 3120 3135 3140 3145 3147 3153 3157 3158
3162 3164 3165 3163 3163 3161 3163 3161 3158 3156 3155 3152 3150 3147 3144 3141 3138 3133 3130 3126 3121 3117 3112 3108 3104 3101 3098 3095 3095 3095 3096 3096 3096 3100 3102 3104 3105 3106 3107 3102 3109 3118 3127 3133 3137 3140 3145 3150 3153
3162 3163 3164 3163 3162 3162 3162 3161 3158 3156 3155 3153 3151 3148 3144 3142 3138 3134 3130 3126 3121 3117 3111 3106 3102 3098 3094 3090 3087 3086 3086 3087 3086 3086 3088 3090 3092 3098 3098 3098 3096 3106 3108 3118 3126 3131 3137 3143 3147
3163 3163 3163 3164 3164 3161 3159 3159 3157 3156 3156 3155 3152 3148 3145 3142 3138 3135 3132 3127 3121 3117 3111 3105 3100 3095 3092 3087 3083 3078 3076 3076 3074 3075 3077 3079 3078 3082 3084 3092 3090 3062 3085 3099 3113 3124 3129 3137 3141
3162 3162 3162 3162 3161 3163 3161 3159 3159 3158 3157 3155 3153 3150 3147 3142 3138 3135 3132 3126 3122 3116 3110 3105 3099 3092 3087 3082 3077 3074 3069 3066 3064 3064 3065 3070 3069 3071 3071 3072 3079 3080 3088 3093 3099 3115 3121 3127 3133
3163 3162 3162 3162 3160 3163 3162 3160 3159 3157 3156 3155 3153 3150 3147 3143 3139 3135 3131 3126 3120 3114 3109 3103 3096 3090 3085 3078 3073 3068 3065 3060 3055 3053 3054 3056 3061 3062 3064 3066 3068 3073 3064 3082 3094 3102 3110 3119 3124
3162 3161 3162 3162 3161 3162 3163 3162 3160 3158 3159 3156 3152 3149 3145 3141 3138 3133 3128 3123 3117 3112 3107 3101 3094 3089 3082 3076 3069 3064 3060 3057 3052 3045 3043 3044 3048 3052 3055 3059 3060 3062 3066 3061 3075 3086 3099 3107 3113
3162 3160 3160 3159 3162 3162 3161 3160 3160 3160 3159 3156 3152 3148 3144 3140 3137 3132 3125 3120 3114 3109 3103 3097 3090 3083 3077 3071 3064 3059 3051 3045 3043 3039 3036 3033 3034 3039 3042 3046 3050 3053 3057 3063 3069 3069 3080 3093 3098
3161 3160 3159 3161 3163 3164 3163 3162 3160 3159 3159 3156 3152 3148 3143 3139 3134 3129 3123 3117 3112 3106 3100 3094 3088 3081 3073 3067 3060 3053 3049 3043 3036 3033 3031 3027 3023 3025 3027 3031 3039 3042 3047 3053 3059 3048 3069 3080 3089
3159 3161 3162 3164 3164 3162 3163 3163 3160 3159 3157 3154 3150 3146 3142 3138 3133 3128 3122 3115 3111 3104 3097 3091 3085 3077 3071 3063 3056 3050 3044 3038 3032 3026 3023 3020 3015 3014 3015 3017 3025 3031 3036 3043 3050 3047 3051 3069 3076
3161 3163 3163 3163 3162 3163 3162 3161 3159 3157 3155 3152 3148 3145 3141 3136 3130 3124 3118 3112 3106 3100 3094 3088 3082 3075 3068 3062 3055 3047 3038 3034 3028 3021 3016 3011 3008 3005 3004 3005 3010 3017 3024 3031 3039 3043 3043 3044 3063
3161 3162 3161 3159 3160 3161 3161 3160 3159 3156 3153 3150 3147 3143 3139 3134 3129 3123 3116 3109 3103 3098 3092 3085 3079 3073 3065 3058 3051 3045 3037 3029 3024 3018 3012 3007 3001 2997 2995 2994 2995 3002 3009 3015 3022 3028 3031 3036 3045
3163 3162 3161 3161 3162 3162 3159 3158 3157 3154 3152 3149 3146 3143 3138 3132 3126 3119 3113 3107 3101 3096 3089 3082 3076 3070 3062 3055 3048 3042 3035 3028 3021 3016 3010 3005 2997 2991 2988 2986 2985 2988 2993 3001 3006 3014 3021 3028 3036
3164 3162 3163 3162 3161 3157 3156 3155 3156 3153 3150 3148 3144 3140 3135 3129 3123 3117 3111 3105 3099 3092 3086 3080 3074 3065 3058 3051 3044 3037 3031 3025 3018 3012 3006 3002 2995 2989 2983 2979 2977 2978 2983 2988 2994 3001 3011 3017 3026
3162 3160 3161 3162 3163 3161 3158 3154 3153 3151 3147 3144 3141 3136 3131 3126 3120 3114 3109 3103 3097 3090 3083 3077 3070 3063 3056 3049 3041 3034 3028 3021 3015 3008 3002 2996 2991 2986 2981 2976 2972 2970 2973 2977 2984 2991 3000 3008 3016
3160 3160 3159 3160 3162 3160 3161 3155 3151 3148 3146 3142 3138 3134 3129 3124 3118 3113 3107 3101 3095 3088 3081 3074 3067 3060 3052 3045 3037 3031 3024 3018 3011 3004 2998 2992 2987 2982 2979 2974 2969 2966 2967 2970 2975 2980 2989 2997 3004